Location: Chevoux
(46.3801°N, 4.9476°E)
Time: 12:40:27
(UTC+00:00)

Cosmos 1340 - Pass Details

Date: 28 January 2021
Orbit: 501 x 503 km, 81.2° (Epoch: 06 March)

Event Time Altitude Azimuth Distance (km) Brightness Sun altitude
Rises 18:04:58 0° 202° (SSW) 2,583 6.7 -14.9°
Reaches altitude 10° 18:07:07 10° 207° (SSW) 1,704 5.8 -15.3°
Maximum altitude 18:10:46 50° 284° (WNW) 649 3.6 -15.9°
Drops below altitude 10° 18:14:26 10° 1° (N) 1,719 5.2 -16.5°
Sets 18:16:37 0° 7° (N) 2,608 6.1 -16.9°
